Weather History for KOEO - April, 2013

Change the Weather History Date:

Saturday, April 13, 2013

  Actual Average (KMSP) Record (KMSP)
Temperature  
Mean Temperature 28 °F 46 °F  
Max Temperature 35 °F 57 °F 84 °F (2006)
Min Temperature 21 °F 36 °F 2 °F (1962)
Degree Days  
Heating Degree Days 37 19  
Month to date heating degree days 283  
Since 1 July heating degree days 7071  
Cooling Degree Days 0 0  
Month to date cooling degree days 0  
Year to date cooling degree days 0  
Moisture  
Dew Point 25 °F    
Average Humidity 82    
Maximum Humidity 100    
Minimum Humidity 56    
Precipitation  
Precipitation 0.03 in 0.09 in 0.94 in (1991)
Month to date precipitation 1.02  
Year to date precipitation 4.58  
Snow  
Snow 0.00 in 0.10 in 8.50 in (1928)
Month to date snowfall 1.4  
Since 1 July snowfall 53.4  
Snow Depth -    
Sea Level Pressure  
Sea Level Pressure 29.90 in    
Wind  
Wind Speed 4 mph (NW)    
Max Wind Speed 12 mph    
Max Gust Speed 16 mph    
Visibility 8 miles    
Events Snow    
T = Trace of Precipitation, MM = Missing Value Source: NWS Daily Summary

Daily Weather History Graph

Daily Weather History Graph

Search for Another Location

Airport or City:

Trip Planner

Search our weather history database for the weather conditions in past years. The results will help you decide how hot, cold, wet, or windy it might be!

Date:

Astronomy

Apr. 13, 2013 Rise Set
Actual Time 6:28 AM CDT 7:54 PM CDT
Civil Twilight 5:58 AM CDT 8:25 PM CDT
Nautical Twilight 5:20 AM CDT 9:02 PM CDT
Astronomical Twilight 4:41 AM CDT 9:42 PM CDT
Moon 8:12 AM CDT (4/13) 11:27 PM CDT (4/13)
Length of Visible Light 14h 27m
Length of Day
13h 25m
Waxing Crescent, 10% of the Moon is Illuminated
Apr 13
Waxing Crescent
Apr 18
First Quarter
Apr 25
Full
May 2
Last Quarter
May 9
New

Hourly Weather History & Observations

Time (CDT) Temp. Windchill Dew Point Humidity Pressure Visibility Wind Dir Wind Speed Gust Speed Precip Events Conditions
12:15 AM 30.2 °F 25.4 °F 28.4 °F 93% 29.85 in 7.0 mi NW 4.6 mph - N/A Snow Light Snow
12:35 AM 30.2 °F 25.4 °F 28.4 °F 93% 29.85 in 5.0 mi WNW 4.6 mph - N/A Snow Light Snow
12:55 AM 28.4 °F 23.3 °F 26.6 °F 93% 29.85 in 5.0 mi NW 4.6 mph - N/A Snow Light Snow
1:15 AM 28.4 °F 24.6 °F 28.4 °F 100% 29.86 in 4.0 mi NW 3.5 mph - N/A Snow Light Snow
1:35 AM 28.4 °F 24.6 °F 28.4 °F 100% 29.86 in 2.5 mi WNW 3.5 mph - N/A Snow Light Snow
1:55 AM 28.4 °F 24.6 °F 28.4 °F 100% 29.86 in 2.5 mi WNW 3.5 mph - N/A Snow Light Snow
2:15 AM 28.4 °F 23.3 °F 28.4 °F 100% 29.85 in 2.0 mi WNW 4.6 mph - N/A Snow Light Snow
2:35 AM 28.4 °F 23.3 °F 28.4 °F 100% 29.85 in 2.0 mi WNW 4.6 mph - N/A Snow Light Snow
2:55 AM 28.4 °F 24.6 °F 28.4 °F 100% 29.85 in 2.0 mi WNW 3.5 mph - N/A Snow Light Snow
3:15 AM 28.4 °F 24.6 °F 28.4 °F 100% 29.84 in 2.5 mi NW 3.5 mph - N/A Snow Light Snow
3:35 AM 28.4 °F 23.3 °F 26.6 °F 93% 29.84 in 3.0 mi NW 4.6 mph - N/A Snow Light Snow
3:55 AM 28.4 °F - 26.6 °F 93% 29.84 in 2.0 mi Calm Calm - N/A Snow Light Snow
4:15 AM 28.4 °F - 26.6 °F 93% 29.84 in 3.0 mi Calm Calm - N/A Snow Light Snow
4:35 AM 28.4 °F 24.6 °F 26.6 °F 93% 29.84 in 3.0 mi West 3.5 mph - N/A Snow Light Snow
4:55 AM 28.4 °F - 26.6 °F 93% 29.84 in 3.0 mi Calm Calm - N/A Snow Light Snow
5:15 AM 28.4 °F 24.6 °F 26.6 °F 93% 29.84 in 3.0 mi WSW 3.5 mph - N/A Snow Light Snow
5:35 AM 26.6 °F - 26.6 °F 100% 29.84 in 3.0 mi Calm Calm - N/A Snow Light Snow
5:55 AM 26.6 °F - 26.6 °F 100% 29.84 in 5.0 mi Calm Calm - N/A Snow Light Snow
6:15 AM 26.6 °F - 26.6 °F 100% 29.84 in 7.0 mi Calm Calm - N/A Snow Light Snow
6:35 AM 28.4 °F - 26.6 °F 93% 29.84 in 3.0 mi Calm Calm - N/A Snow Light Snow
6:55 AM 28.4 °F - 26.6 °F 93% 29.85 in 1.5 mi Calm Calm - N/A Snow Light Snow
7:15 AM 28.4 °F - 28.4 °F 100% 29.86 in 4.0 mi Calm Calm - N/A Snow Light Snow
7:35 AM 28.4 °F - 28.4 °F 100% 29.86 in 7.0 mi Calm Calm - N/A   Overcast
7:55 AM 28.4 °F 24.6 °F 28.4 °F 100% 29.86 in 10.0 mi West 3.5 mph - N/A   Overcast
8:15 AM 30.2 °F 26.7 °F 28.4 °F 93% 29.87 in 10.0 mi NNW 3.5 mph - N/A   Overcast
8:35 AM 30.2 °F 24.3 °F 28.4 °F 93% 29.87 in 10.0 mi NW 5.8 mph - N/A   Overcast
8:55 AM 30.2 °F 24.3 °F 28.4 °F 93% 29.87 in 10.0 mi NNW 5.8 mph - N/A   Overcast
9:15 AM 30.2 °F 23.4 °F 26.6 °F 86% 29.88 in 10.0 mi NNW 6.9 mph - N/A   Overcast
9:35 AM 30.2 °F 24.3 °F 26.6 °F 86% 29.88 in 10.0 mi NNW 5.8 mph - N/A   Overcast
9:55 AM 30.2 °F 25.4 °F 26.6 °F 86% 29.88 in 10.0 mi NW 4.6 mph - N/A   Overcast
10:15 AM 32.0 °F 27.5 °F 26.6 °F 80% 29.88 in 7.0 mi WNW 4.6 mph - 0.01 in   Overcast
10:35 AM 32.0 °F 28.7 °F 26.6 °F 80% 29.88 in 4.0 mi NW 3.5 mph - 0.03 in   Haze
10:55 AM 32.0 °F 25.6 °F 26.6 °F 80% 29.88 in 10.0 mi WNW 6.9 mph - 0.03 in   Overcast
11:15 AM 32.0 °F 24.8 °F 24.8 °F 75% 29.89 in 10.0 mi NW 8.1 mph - N/A   Overcast
11:35 AM 32.0 °F 24.8 °F 26.6 °F 80% 29.90 in 10.0 mi NW 8.1 mph - N/A   Overcast
11:55 AM 32.0 °F 24.2 °F 24.8 °F 75% 29.90 in 10.0 mi WNW 9.2 mph - N/A   Overcast
12:15 PM 32.0 °F 24.8 °F 24.8 °F 75% 29.91 in 10.0 mi WNW 8.1 mph - N/A   Overcast
12:35 PM 32.0 °F 23.0 °F 24.8 °F 75% 29.91 in 10.0 mi West 11.5 mph - N/A   Overcast
12:55 PM 32.0 °F 24.2 °F 24.8 °F 75% 29.91 in 10.0 mi NW 9.2 mph - N/A   Overcast
1:15 PM 32.0 °F 26.4 °F 24.8 °F 75% 29.91 in 10.0 mi NW 5.8 mph 16.1 mph N/A   Overcast
1:35 PM 32.0 °F 25.6 °F 24.8 °F 75% 29.91 in 10.0 mi NNW 6.9 mph - N/A   Overcast
1:55 PM 32.0 °F 24.8 °F 24.8 °F 75% 29.91 in 10.0 mi NNW 8.1 mph - N/A   Overcast
2:15 PM 33.8 °F 28.6 °F 23.0 °F 65% 29.91 in 10.0 mi NNW 5.8 mph - N/A   Overcast
2:35 PM 33.8 °F 27.7 °F 23.0 °F 65% 29.91 in 10.0 mi NNW 6.9 mph - N/A   Overcast
2:55 PM 33.8 °F 27.7 °F 23.0 °F 65% 29.92 in 10.0 mi NNW 6.9 mph - N/A   Overcast
3:15 PM 33.8 °F 28.6 °F 23.0 °F 65% 29.91 in 10.0 mi NNW 5.8 mph - N/A   Overcast
3:35 PM 33.8 °F 27.0 °F 23.0 °F 65% 29.92 in 10.0 mi NNW 8.1 mph - N/A   Overcast
3:55 PM 33.8 °F 28.6 °F 23.0 °F 65% 29.92 in 10.0 mi NW 5.8 mph - N/A   Overcast
4:15 PM 33.8 °F 28.6 °F 23.0 °F 65% 29.91 in 10.0 mi NNW 5.8 mph - N/A   Overcast
4:35 PM 33.8 °F 29.6 °F 21.2 °F 60% 29.92 in 10.0 mi NNW 4.6 mph - N/A   Overcast
4:55 PM 33.8 °F 29.6 °F 23.0 °F 65% 29.92 in 10.0 mi WNW 4.6 mph - N/A   Overcast
5:15 PM 33.8 °F 29.6 °F 23.0 °F 65% 29.92 in 10.0 mi NNW 4.6 mph - N/A   Overcast
5:35 PM 33.8 °F 27.7 °F 23.0 °F 65% 29.92 in 10.0 mi NNW 6.9 mph - N/A   Overcast
5:55 PM 33.8 °F 28.6 °F 21.2 °F 60% 29.93 in 10.0 mi NNW 5.8 mph - N/A   Overcast
6:15 PM 35.6 °F 30.7 °F 21.2 °F 56% 29.92 in 10.0 mi NW 5.8 mph - N/A   Mostly Cloudy
6:35 PM 33.8 °F 28.6 °F 21.2 °F 60% 29.93 in 10.0 mi WSW 5.8 mph - N/A   Scattered Clouds
6:55 PM 33.8 °F 30.8 °F 21.2 °F 60% 29.93 in 10.0 mi West 3.5 mph - N/A   Clear
7:15 PM 33.8 °F 30.8 °F 21.2 °F 60% 29.93 in 10.0 mi WSW 3.5 mph - N/A   Scattered Clouds
7:35 PM 32.0 °F - 21.2 °F 64% 29.93 in 10.0 mi Calm Calm - N/A   Scattered Clouds
7:55 PM 32.0 °F - 21.2 °F 64% 29.93 in 10.0 mi Calm Calm - N/A   Mostly Cloudy
8:15 PM 32.0 °F - 21.2 °F 64% 29.94 in 10.0 mi Calm Calm - N/A   Mostly Cloudy
8:35 PM 30.2 °F - 21.2 °F 69% 29.94 in 10.0 mi Calm Calm - N/A   Scattered Clouds
8:55 PM 28.4 °F 24.6 °F 21.2 °F 74% 29.95 in 10.0 mi SSE 3.5 mph - N/A   Clear
9:15 PM 26.6 °F 21.2 °F 21.2 °F 80% 29.96 in 10.0 mi SSE 4.6 mph - N/A   Clear
9:35 PM 26.6 °F 22.6 °F 21.2 °F 80% 29.97 in 10.0 mi South 3.5 mph - N/A   Clear
9:55 PM 24.8 °F 20.5 °F 21.2 °F 86% 29.98 in 10.0 mi South 3.5 mph - N/A   Clear
10:15 PM 23.0 °F - 19.4 °F 86% 29.98 in 10.0 mi Calm Calm - N/A   Clear
10:35 PM 23.0 °F - 21.2 °F 93% 29.99 in 10.0 mi Calm Calm - N/A   Clear
10:55 PM 23.0 °F - 19.4 °F 86% 29.99 in 10.0 mi Calm Calm - N/A   Clear
11:15 PM 23.0 °F - 19.4 °F 86% 29.99 in 10.0 mi Calm Calm - N/A   Clear
11:35 PM 21.2 °F - 19.4 °F 93% 29.99 in 10.0 mi Calm Calm - N/A   Clear
11:55 PM 21.2 °F - 17.6 °F 86% 29.99 in 10.0 mi Calm Calm - N/A   Clear